SCP
0 0 0 0 0 0 0 0 0 0 0 0 0 0 0 0 0 0 0 0 0 0 0 0 0 0 0 0 0 0 0 0 0 0 0 0 -0 -0 -0 0 0 0 0
0 0 0 0 0 0 0 0 0 0 0 0 0 0 0 0 0 0 -0 -0 -0 0 0 0 0 0 0 0 0 -0 0 0 0 0 0 0 0 0 0 -0 0 0 0
0 0 0 0 0 0 0 0 0 0 0 0 0 0 0 0 0 0 0 -0 -0 -0 -0 -0 0 0 0 0 -0 -0 0 0 0 0 0 -0 0 0 0 0 0 0 0
0 0 0 0 0 0 0 0 0 0 0 0 0 0 0 0 0 0 0 0 -0 -0 -0 -0 -0 0 -0 -0 -0 -0 0 0 0 0 0 0 0 0 0 0 0 0 0
0 0 0 0 0 0 0 0 0 0 0 0 0 0 0 0 0 0 0 0 0 -0 0 -0 -0 -0 -0 -0 -0 0 0 0 0 0 0 0 0 0 0 0 -0 -0 0
0 0 0 0 0 0 0 0 0 0 0 0 0 0 0 0 -0 -0 0 0 0 0 -0 -0 0 -0 0 -0 0 0 0 0 0 -0 0 0 0 -0 0 0 -0 -0 -0
0 0 0 0 0 0 0 0 0 0 0 0 0 0 0 0 0 -0 0 0 0 0 0 0 0 -0 0 0 0 0 0 0 0 0 0 0 0 -0 0 -0 -0 -0 -0
0 0 0 0 0 0 0 0 0 0 0 0 0 0 0 0 0 0 0 0 0 0 -0 0 -0 0 0 0 0 0 0 0 0 0 0 0 0 0 -0 -0 -0 -0 -0
0 0 0 0 0 0 0 0 0 0 0 0 0 0 0 0 0 0 0 0 0 0 0 0 -0 0 0 0 0 0 0 0 -0 -0 -0 -0 -0 -0 -0 -0 -0 -0 -0
0 0 0 0 0 0 0 0 0 0 0 0 0 0 0 0 0 -0 0 0 0 -0 -0 0 0 0 0 0 0 0 0 0 0 0 0 -0 -0 0 -0 0 0 0 0
0 0 0 0 0 0 0 0 0 0 0 0 0 0 0 0 0 -0 0 -0 0 0 0 0 0 0 0 0 0 0 0 0 0 0 0 0 0 0 0 0 -0 -0 0
0 0 0 0 0 0 0 0 0 0 0 0 0 0 0 0 0 0 0 -0 0 0 0 0 0 0 0 0 0 0 0 0 0 0 0 0 0 0 0 -0 -0 -0 -0
0 0 0 0 0 0 0 0 0 -0 0 0 0 0 0 0 0 0 0 0 0 0 0 0 0 0 0 0 0 0 0 0 0 0 0 0 0 0 0 0 0 0 0
0 0 0 0 -0 -0 -0 -0 -0 0 0 0 0 0 0 0 0 0 0 0 0 0 0 0 0 0 0 0 0 0 0 0 0 0 0 0 0 0 0 0 0 0 0
0 -0 -0 -0 -0 -0 -0 -0 0 0 0 0 0 0 0 0 0 0 0 0 0 0 0 0 0 0 0 0 0 0 0 0 0 0 0 0 0 0 0 0 0 0 0
-0 -0 -0 -0 0 0 0 0 0 0 0 0 0 0 0 0 0 0 0 0 0 0 0 0 0 0 0 0 0 0 0 0 0 0 0 0 0 0 0 0 0 0 0
0 0 0 0 0 0 0 0 0 0 0 0 0 0 0 0 0 0 0 0 0 0 0 0 0 0 0 0 0 0 0 0 0 0 0 0 0 0 0 0 0 0 0
0 0 0 0 0 0 0 0 0 0 0 0 0 0 0 0 0 0 0 0 0 0 0 0 0 0 0 0 0 0 0 0 0 0 0 0 0 0 0 0 0 0 0
0 0 0 0 0 0 0 0 0 0 0 0 0 0 0 0 0 0 0 0 0 0 0 0 0 0 0 0 0 0 0 0 0 0 0 0 0 0 0 0 0 0 0
0 0 0 0 0 0 0 0 0 0 0 0 0 0 0 0 0 0 0 0 0 0 0 0 0 0 0 0 0 0 0 0 0 0 0 0 0 0 0 0 0 0 0
0 0 0 0 0 0 0 0 0 0 0 0 0 0 0 0 0 0 0 0 0 0 0 0 0 0 0 0 0 0 0 0 0 0 0 0 0 0 0 0 0 0 0
0 0 0 0 0 0 0 0 0 0 0 0 0 0 0 0 0 0 0 0 0 0 0 0 0 0 0 0 0 0 0 0 0 0 0 0 0 0 0 0 0 0 0
0 0 0 0 0 0 0 0 0 0 0 0 0 0 0 0 0 0 0 0 0 0 0 0 0 0 0 0 0 0 0 0 0 0 0 0 0 0 0 0 0 0 0
0 0 0 0 0 0 0 0 0 0 0 0 0 0 0 0 0 0 0 0 0 0 0 0 0 0 0 0 0 0 0 0 0 0 0 0 0 0 0 -0 0 0 0
0 0 0 0 0 0 0 0 0 0 0 0 0 0 0 0 0 0 0 0 0 0 0 0 0 0 0 0 0 0 0 0 0 0 0 0 0 0 0 0 0 0 0
0 0 0 0 0 0 0 0 0 0 0 0 0 0 0 0 0 0 0 0 0 0 0 0 0 0 0 0 0 0 0 0 0 0 0 0 0 0 0 0 0 0 0
Wind_Speed_500mb
31 30 32 31 26 24 23 25 27 26 30 29 22 30 28 32 31 34 37 35 28 25 26 20 18 16 22 21 21 26 25 13 27 8 28 15 23 26 26 19 19 22 21
24 22 23 24 26 26 25 24 25 27 29 27 23 27 26 29 23 30 41 38 29 21 29 28 27 25 24 23 22 22 23 8 16 15 32 28 31 27 28 24 28 27 26
16 20 21 23 27 27 26 25 24 26 23 20 22 23 23 28 28 23 29 32 33 29 27 27 30 30 31 29 27 22 19 16 16 27 27 25 32 28 30 26 25 28 29
19 23 24 25 27 30 27 26 26 25 24 21 21 23 21 28 26 18 22 24 25 26 28 29 32 33 33 27 28 24 20 12 13 2 33 38 39 36 24 25 26 27 30
22 23 27 26 30 34 28 26 26 24 23 24 23 22 22 27 22 19 20 20 22 23 26 30 34 36 31 29 31 26 18 8 10 1 28 42 41 37 30 16 23 24 28
21 24 27 30 32 33 26 26 27 26 22 19 23 21 23 25 23 17 23 25 21 20 26 37 37 39 30 24 22 27 17 4 6 10 25 38 38 32 22 18 17 14 25
18 24 30 33 31 30 27 26 28 26 23 21 23 22 24 24 22 22 20 15 22 19 30 44 50 43 31 19 16 19 11 3 11 6 19 35 33 24 13 18 14 15 27
18 24 28 31 36 33 29 29 30 28 22 14 18 27 21 25 27 25 20 11 17 17 33 46 49 42 26 15 16 16 8 7 14 8 18 7 22 16 16 15 13 15 19
22 29 28 29 34 34 31 33 28 24 25 20 21 29 24 29 24 22 21 16 19 15 37 40 39 35 27 20 18 14 14 19 18 21 21 25 23 25 19 14 13 7 18
29 28 23 26 30 34 32 36 33 22 22 20 21 31 31 30 24 17 18 16 11 22 29 27 25 27 25 21 17 20 35 33 30 32 35 31 27 22 18 14 9 8 10
31 26 20 21 27 31 31 32 29 26 26 28 25 23 29 28 16 13 13 15 17 21 24 16 22 27 24 23 19 22 32 36 41 42 36 27 18 13 12 7 2 7 9
28 16 15 17 23 25 28 29 28 23 20 21 20 24 27 24 13 9 16 14 15 20 18 22 24 26 27 23 22 25 32 39 41 33 27 25 20 18 13 7 7 8 15
25 23 19 19 21 23 28 30 28 19 25 25 30 25 23 22 16 11 8 14 16 18 24 23 24 27 28 27 32 34 32 38 31 20 24 26 25 20 16 18 24 32 45
26 20 19 18 21 27 29 29 30 30 30 30 32 23 17 20 20 19 16 14 19 25 25 27 28 32 30 31 32 28 30 23 19 16 25 27 26 28 30 35 43 49 51
22 21 19 22 26 28 26 26 26 25 32 33 32 26 22 19 20 16 16 20 30 27 29 32 38 37 35 34 34 30 26 25 27 27 25 26 30 33 36 41 45 46 50
17 19 22 26 20 23 24 25 20 24 26 38 39 38 35 29 26 27 34 36 33 30 34 41 42 41 38 35 33 32 31 33 33 33 37 39 43 49 51 48 46 46 46
14 24 21 18 21 23 22 25 25 27 30 43 41 45 43 38 38 41 41 37 35 36 42 42 39 33 32 32 32 34 39 38 41 48 52 49 47 45 41 40 38 37 34
25 37 34 27 32 30 28 30 34 38 40 42 40 31 33 36 41 42 40 39 41 40 40 41 40 36 36 37 40 45 47 47 50 51 47 44 44 43 41 39 35 32 30
33 32 34 35 30 30 32 36 39 41 44 40 38 38 39 41 41 44 43 48 47 46 43 40 37 37 39 42 43 46 48 54 52 51 55 55 52 48 46 41 37 35 34
38 37 35 35 35 37 38 38 39 40 43 46 45 44 46 52 57 56 53 51 48 47 48 48 49 51 50 49 49 53 56 52 55 55 51 46 42 37 32 28 25 22 21
46 42 41 42 40 37 35 37 38 37 40 48 53 52 55 61 56 52 51 54 54 51 52 50 51 47 46 49 52 53 53 53 48 43 37 34 30 26 21 20 18 16 14
52 59 56 52 45 41 43 43 45 44 45 51 56 55 54 53 54 55 53 54 58 58 57 56 53 50 49 49 47 46 43 39 34 32 32 32 30 32 29 23 24 24 21
46 49 55 57 67 64 59 52 50 52 51 56 51 51 51 51 50 50 50 49 49 48 45 46 48 50 48 47 42 38 34 32 31 31 32 32 31 33 30 23 16 11 9
37 38 50 48 49 52 53 53 50 55 53 52 51 50 49 49 49 49 48 45 45 48 49 51 49 46 42 39 35 32 30 30 29 25 23 23 24 27 28 25 20 17 9
33 37 38 40 43 39 42 48 54 55 53 50 51 53 53 54 55 55 55 51 47 46 44 41 40 40 38 35 33 34 34 33 30 30 27 25 22 22 24 25 21 16 17
26 29 32 34 36 39 41 44 43 42 44 43 47 47 49 50 48 46 44 43 42 41 39 37 34 31 29 29 31 31 29 29 29 29 27 22 24 27 28 28 27 27 24
Wind_Direction_500mb
330 334 334 340 354 2 356 346 341 342 345 346 347 348 355 350 356 1 4 356 347 355 359 4 351 331 325 336 330 337 343 323 335 255 168 174 166 152 145 132 108 110 105
349 358 18 12 1 355 348 344 337 340 341 342 343 347 351 353 357 3 7 9 15 2 4 2 1 5 358 346 338 339 351 13 340 157 162 167 146 148 137 121 101 90 83
34 11 2 3 360 357 353 351 351 344 344 344 336 341 349 355 0 0 7 11 19 18 16 21 9 5 1 0 354 344 346 2 18 158 156 161 148 135 119 105 84 78 69
15 5 6 8 10 2 353 352 350 357 355 343 335 341 345 346 351 360 352 5 7 12 11 10 1 6 8 359 349 345 347 347 17 351 172 160 142 130 117 118 96 80 71
12 20 18 11 5 356 355 357 359 353 350 351 351 347 346 340 340 350 328 338 352 349 350 352 350 349 349 353 356 353 350 13 45 232 175 153 145 140 136 134 107 90 76
17 18 13 10 3 5 10 10 4 359 355 2 355 353 349 348 343 325 316 318 327 327 345 350 347 342 340 341 349 349 345 56 107 151 177 162 160 156 137 147 119 93 79
26 24 13 6 1 359 356 353 358 1 2 2 355 346 340 344 342 336 333 317 316 317 337 342 344 345 341 339 340 354 351 54 158 157 201 191 172 163 142 136 86 94 90
21 3 1 5 1 355 356 356 353 351 356 349 340 336 345 347 348 350 353 337 317 326 331 340 343 348 354 356 356 6 22 100 134 133 145 181 173 139 138 135 119 116 87
352 351 356 344 349 356 358 353 341 334 339 330 323 326 325 322 330 343 350 335 299 314 333 342 352 3 16 22 23 28 88 114 122 117 134 138 149 147 148 142 140 122 88
343 341 335 331 347 348 344 342 337 328 329 323 319 316 309 307 302 333 340 343 334 322 335 354 9 18 21 36 52 99 115 121 124 122 128 137 137 144 137 129 84 32 95
321 325 320 331 343 341 339 345 345 328 319 318 323 332 326 304 323 319 338 341 338 348 347 23 28 32 53 65 84 118 119 125 125 124 124 129 134 134 149 162 286 333 327
349 324 324 336 336 338 350 352 348 347 352 360 357 349 6 10 2 353 357 7 21 16 37 47 36 39 73 78 86 105 118 119 116 115 110 109 110 114 118 125 86 76 96
1 343 334 331 331 345 352 356 358 5 12 15 10 9 13 25 38 43 42 49 37 42 66 49 51 69 80 88 102 104 107 109 125 108 88 91 95 99 100 104 111 108 105
358 357 1 354 352 343 352 355 5 14 14 9 1 12 27 60 61 58 69 51 48 82 74 64 71 83 90 102 107 106 115 109 93 82 102 90 85 96 101 110 113 111 107
1 9 11 354 347 356 356 357 2 18 22 14 27 39 56 65 49 68 76 75 91 93 81 85 89 91 89 88 84 81 83 93 99 96 93 98 103 102 103 109 105 102 100
0 7 356 350 2 3 10 5 34 39 41 68 34 37 55 62 73 84 96 97 95 90 89 89 86 85 83 79 77 82 82 87 92 101 99 98 99 100 103 106 103 100 99
355 348 351 10 12 16 45 61 52 57 71 67 51 56 59 75 83 90 92 91 93 92 87 85 83 82 80 81 83 85 88 90 95 99 100 101 100 98 101 98 97 96 95
55 57 51 63 64 57 58 62 69 75 65 57 68 73 67 78 86 93 93 98 93 84 80 81 82 80 78 82 88 90 93 98 99 102 101 93 91 89 89 88 90 91 92
57 55 63 65 62 69 71 74 79 77 72 67 72 78 76 80 93 94 90 85 85 81 78 75 72 76 83 88 89 97 98 103 103 97 94 90 87 85 86 85 85 87 91
61 65 71 75 76 79 78 76 77 82 70 72 76 80 85 88 87 87 86 83 79 77 79 81 82 84 84 84 89 98 105 100 101 99 95 89 82 77 75 76 79 83 83
58 67 73 78 78 74 72 69 74 78 74 77 79 84 87 86 84 81 80 82 83 81 83 84 89 94 91 91 96 102 106 105 101 93 82 73 65 59 65 79 78 73 82
70 72 73 76 78 78 76 75 78 83 87 86 88 86 86 82 82 82 81 81 87 85 83 84 85 87 91 97 101 104 103 98 89 77 64 60 57 58 62 75 65 59 64
67 67 78 78 73 76 76 80 83 88 93 95 92 89 88 84 80 81 84 90 86 80 79 81 85 86 87 90 92 90 84 74 64 61 58 54 53 49 44 45 65 76 57
53 77 85 81 72 64 66 76 86 93 95 94 92 88 84 83 82 80 82 81 77 80 83 82 82 79 77 74 69 62 57 55 55 52 43 43 50 44 38 34 38 42 100
75 84 71 67 70 77 82 91 85 87 87 88 92 89 88 88 88 86 87 82 79 80 80 78 76 73 70 67 64 57 54 51 48 44 44 37 39 38 33 36 48 68 82
78 75 77 78 70 76 84 90 93 89 88 89 93 92 92 88 86 86 85 82 79 76 74 70 65 59 56 56 55 55 51 43 41 37 32 38 40 40 38 46 58 70 75
Wind_Speed_850mb
31 30 32 31 26 24 23 25 27 26 30 29 22 30 28 32 31 34 37 35 28 25 26 20 18 16 22 21 21 26 25 13 27 8 28 15 23 26 26 19 19 22 21
24 22 23 24 26 26 25 24 25 27 29 27 23 27 26 29 23 30 41 38 29 21 29 28 27 25 24 23 22 22 23 8 16 15 32 28 31 27 28 24 28 27 26
16 20 21 23 27 27 26 25 24 26 23 20 22 23 23 28 28 23 29 32 33 29 27 27 30 30 31 29 27 22 19 16 16 27 27 25 32 28 30 26 25 28 29
19 23 24 25 27 30 27 26 26 25 24 21 21 23 21 28 26 18 22 24 25 26 28 29 32 33 33 27 28 24 20 12 13 2 33 38 39 36 24 25 26 27 30
22 23 27 26 30 34 28 26 26 24 23 24 23 22 22 27 22 19 20 20 22 23 26 30 34 36 31 29 31 26 18 8 10 1 28 42 41 37 30 16 23 24 28
21 24 27 30 32 33 26 26 27 26 22 19 23 21 23 25 23 17 23 25 21 20 26 37 37 39 30 24 22 27 17 4 6 10 25 38 38 32 22 18 17 14 25
18 24 30 33 31 30 27 26 28 26 23 21 23 22 24 24 22 22 20 15 22 19 30 44 50 43 31 19 16 19 11 3 11 6 19 35 33 24 13 18 14 15 27
18 24 28 31 36 33 29 29 30 28 22 14 18 27 21 25 27 25 20 11 17 17 33 46 49 42 26 15 16 16 8 7 14 8 18 7 22 16 16 15 13 15 19
22 29 28 29 34 34 31 33 28 24 25 20 21 29 24 29 24 22 21 16 19 15 37 40 39 35 27 20 18 14 14 19 18 21 21 25 23 25 19 14 13 7 18
29 28 23 26 30 34 32 36 33 22 22 20 21 31 31 30 24 17 18 16 11 22 29 27 25 27 25 21 17 20 35 33 30 32 35 31 27 22 18 14 9 8 10
31 26 20 21 27 31 31 32 29 26 26 28 25 23 29 28 16 13 13 15 17 21 24 16 22 27 24 23 19 22 32 36 41 42 36 27 18 13 12 7 2 7 9
28 16 15 17 23 25 28 29 28 23 20 21 20 24 27 24 13 9 16 14 15 20 18 22 24 26 27 23 22 25 32 39 41 33 27 25 20 18 13 7 7 8 15
25 23 19 19 21 23 28 30 28 19 25 25 30 25 23 22 16 11 8 14 16 18 24 23 24 27 28 27 32 34 32 38 31 20 24 26 25 20 16 18 24 32 45
26 20 19 18 21 27 29 29 30 30 30 30 32 23 17 20 20 19 16 14 19 25 25 27 28 32 30 31 32 28 30 23 19 16 25 27 26 28 30 35 43 49 51
22 21 19 22 26 28 26 26 26 25 32 33 32 26 22 19 20 16 16 20 30 27 29 32 38 37 35 34 34 30 26 25 27 27 25 26 30 33 36 41 45 46 50
17 19 22 26 20 23 24 25 20 24 26 38 39 38 35 29 26 27 34 36 33 30 34 41 42 41 38 35 33 32 31 33 33 33 37 39 43 49 51 48 46 46 46
14 24 21 18 21 23 22 25 25 27 30 43 41 45 43 38 38 41 41 37 35 36 42 42 39 33 32 32 32 34 39 38 41 48 52 49 47 45 41 40 38 37 34
25 37 34 27 32 30 28 30 34 38 40 42 40 31 33 36 41 42 40 39 41 40 40 41 40 36 36 37 40 45 47 47 50 51 47 44 44 43 41 39 35 32 30
33 32 34 35 30 30 32 36 39 41 44 40 38 38 39 41 41 44 43 48 47 46 43 40 37 37 39 42 43 46 48 54 52 51 55 55 52 48 46 41 37 35 34
38 37 35 35 35 37 38 38 39 40 43 46 45 44 46 52 57 56 53 51 48 47 48 48 49 51 50 49 49 53 56 52 55 55 51 46 42 37 32 28 25 22 21
46 42 41 42 40 37 35 37 38 37 40 48 53 52 55 61 56 52 51 54 54 51 52 50 51 47 46 49 52 53 53 53 48 43 37 34 30 26 21 20 18 16 14
52 59 56 52 45 41 43 43 45 44 45 51 56 55 54 53 54 55 53 54 58 58 57 56 53 50 49 49 47 46 43 39 34 32 32 32 30 32 29 23 24 24 21
46 49 55 57 67 64 59 52 50 52 51 56 51 51 51 51 50 50 50 49 49 48 45 46 48 50 48 47 42 38 34 32 31 31 32 32 31 33 30 23 16 11 9
37 38 50 48 49 52 53 53 50 55 53 52 51 50 49 49 49 49 48 45 45 48 49 51 49 46 42 39 35 32 30 30 29 25 23 23 24 27 28 25 20 17 9
33 37 38 40 43 39 42 48 54 55 53 50 51 53 53 54 55 55 55 51 47 46 44 41 40 40 38 35 33 34 34 33 30 30 27 25 22 22 24 25 21 16 17
26 29 32 34 36 39 41 44 43 42 44 43 47 47 49 50 48 46 44 43 42 41 39 37 34 31 29 29 31 31 29 29 29 29 27 22 24 27 28 28 27 27 24
Wind_Direction_850mb
330 334 334 340 354 2 356 346 341 342 345 346 347 348 355 350 356 1 4 356 347 355 359 4 351 331 325 336 330 337 343 323 335 255 168 174 166 152 145 132 108 110 105
349 358 18 12 1 355 348 344 337 340 341 342 343 347 351 353 357 3 7 9 15 2 4 2 1 5 358 346 338 339 351 13 340 157 162 167 146 148 137 121 101 90 83
34 11 2 3 360 357 353 351 351 344 344 344 336 341 349 355 0 0 7 11 19 18 16 21 9 5 1 0 354 344 346 2 18 158 156 161 148 135 119 105 84 78 69
15 5 6 8 10 2 353 352 350 357 355 343 335 341 345 346 351 360 352 5 7 12 11 10 1 6 8 359 349 345 347 347 17 351 172 160 142 130 117 118 96 80 71
12 20 18 11 5 356 355 357 359 353 350 351 351 347 346 340 340 350 328 338 352 349 350 352 350 349 349 353 356 353 350 13 45 232 175 153 145 140 136 134 107 90 76
17 18 13 10 3 5 10 10 4 359 355 2 355 353 349 348 343 325 316 318 327 327 345 350 347 342 340 341 349 349 345 56 107 151 177 162 160 156 137 147 119 93 79
26 24 13 6 1 359 356 353 358 1 2 2 355 346 340 344 342 336 333 317 316 317 337 342 344 345 341 339 340 354 351 54 158 157 201 191 172 163 142 136 86 94 90
21 3 1 5 1 355 356 356 353 351 356 349 340 336 345 347 348 350 353 337 317 326 331 340 343 348 354 356 356 6 22 100 134 133 145 181 173 139 138 135 119 116 87
352 351 356 344 349 356 358 353 341 334 339 330 323 326 325 322 330 343 350 335 299 314 333 342 352 3 16 22 23 28 88 114 122 117 134 138 149 147 148 142 140 122 88
343 341 335 331 347 348 344 342 337 328 329 323 319 316 309 307 302 333 340 343 334 322 335 354 9 18 21 36 52 99 115 121 124 122 128 137 137 144 137 129 84 32 95
321 325 320 331 343 341 339 345 345 328 319 318 323 332 326 304 323 319 338 341 338 348 347 23 28 32 53 65 84 118 119 125 125 124 124 129 134 134 149 162 286 333 327
349 324 324 336 336 338 350 352 348 347 352 360 357 349 6 10 2 353 357 7 21 16 37 47 36 39 73 78 86 105 118 119 116 115 110 109 110 114 118 125 86 76 96
1 343 334 331 331 345 352 356 358 5 12 15 10 9 13 25 38 43 42 49 37 42 66 49 51 69 80 88 102 104 107 109 125 108 88 91 95 99 100 104 111 108 105
358 357 1 354 352 343 352 355 5 14 14 9 1 12 27 60 61 58 69 51 48 82 74 64 71 83 90 102 107 106 115 109 93 82 102 90 85 96 101 110 113 111 107
1 9 11 354 347 356 356 357 2 18 22 14 27 39 56 65 49 68 76 75 91 93 81 85 89 91 89 88 84 81 83 93 99 96 93 98 103 102 103 109 105 102 100
0 7 356 350 2 3 10 5 34 39 41 68 34 37 55 62 73 84 96 97 95 90 89 89 86 85 83 79 77 82 82 87 92 101 99 98 99 100 103 106 103 100 99
355 348 351 10 12 16 45 61 52 57 71 67 51 56 59 75 83 90 92 91 93 92 87 85 83 82 80 81 83 85 88 90 95 99 100 101 100 98 101 98 97 96 95
55 57 51 63 64 57 58 62 69 75 65 57 68 73 67 78 86 93 93 98 93 84 80 81 82 80 78 82 88 90 93 98 99 102 101 93 91 89 89 88 90 91 92
57 55 63 65 62 69 71 74 79 77 72 67 72 78 76 80 93 94 90 85 85 81 78 75 72 76 83 88 89 97 98 103 103 97 94 90 87 85 86 85 85 87 91
61 65 71 75 76 79 78 76 77 82 70 72 76 80 85 88 87 87 86 83 79 77 79 81 82 84 84 84 89 98 105 100 101 99 95 89 82 77 75 76 79 83 83
58 67 73 78 78 74 72 69 74 78 74 77 79 84 87 86 84 81 80 82 83 81 83 84 89 94 91 91 96 102 106 105 101 93 82 73 65 59 65 79 78 73 82
70 72 73 76 78 78 76 75 78 83 87 86 88 86 86 82 82 82 81 81 87 85 83 84 85 87 91 97 101 104 103 98 89 77 64 60 57 58 62 75 65 59 64
67 67 78 78 73 76 76 80 83 88 93 95 92 89 88 84 80 81 84 90 86 80 79 81 85 86 87 90 92 90 84 74 64 61 58 54 53 49 44 45 65 76 57
53 77 85 81 72 64 66 76 86 93 95 94 92 88 84 83 82 80 82 81 77 80 83 82 82 79 77 74 69 62 57 55 55 52 43 43 50 44 38 34 38 42 100
75 84 71 67 70 77 82 91 85 87 87 88 92 89 88 88 88 86 87 82 79 80 80 78 76 73 70 67 64 57 54 51 48 44 44 37 39 38 33 36 48 68 82
78 75 77 78 70 76 84 90 93 89 88 89 93 92 92 88 86 86 85 82 79 76 74 70 65 59 56 56 55 55 51 43 41 37 32 38 40 40 38 46 58 70 75